Regional Weather Roundup
Issued by NWS

Home | Current Version | Previous Version | Text Only | Print | Product List | Glossary On
Versions: 1 2 3 4 5 6 7 8 9 10 11 12 13 14 15 16 17 18 19 20 21 22 23 24 25 26 27 28 29 30 31 32 33 34 35 36 37 38 39 40 41 42 43 44 45 46 47 48 49 50
000
ASUS44 KLIX 030611
RWRLA
LOUISIANA WEATHER ROUNDUP
NATIONAL WEATHER SERVICE NEW ORLEANS LA
100 AM CDT THU SEP 03 2015

NOTE: "FAIR" INDICATES FEW OR NO CLOUDS BELOW 12,000 FEET WITH NO
      SIGNIFICANT WEATHER AND/OR OBSTRUCTIONS TO VISIBILITY.
      SKY/WX - SKY CONDITION AND SIGNIFICANT WEATHER.
      TMP - AIR TEMPERATURE.    DP   - DEWPOINT TEMPERATURE.
      RH  - RELATIVE HUMIDITY.  PRES - PRESSURE.
      HX  - HEAT INDEX.         WCI  - WIND CHILL INDEX.

*  THESE STATIONS ARE NOT NWS OR FAA STATIONS AND ARE NOT UNDER
   NWS QUALITY CONTROL.

LAZ040-048-061>063-065-066-069-030700-
SOUTHEAST LOUISIANA

CITY           SKY/WX    TMP DP  RH WIND       PRES   REMARKS
N.O. AUDUBON   NOT AVBL
N.O. INTL ARPT MOCLDY    77  71  82 E3        29.98F
6HR MIN TEMP:  77; 6HR MAX TEMP:  81;

N.O. LAKEFRONT FAIR      78  72  81 CALM      29.99F
6HR MIN TEMP:  77; 6HR MAX TEMP:  81;

N.O. DOWNTOWN* FAIR      81  72  74 CALM      30.00F
6HR MIN TEMP:  79; 6HR MAX TEMP:  81;

RESERVE*       FAIR      76  73  92 CALM      29.98F
6HR MIN TEMP:  75; 6HR MAX TEMP:  81;

SLIDELL        FAIR      73  72  96 CALM      29.99F
6HR MIN TEMP:  72; 6HR MAX TEMP:  82;

BATON ROUGE    FAIR      75  71  87 SE3       29.99F
6HR MIN TEMP:  75; 6HR MAX TEMP:  81;

BOOTHVILLE     FAIR      80  76  87 CALM      29.99F
6HR MIN TEMP:  78; 6HR MAX TEMP:  80; 6HR PCP:  0.01;

BELLE CHASSE   FAIR      74  72  93 CALM      29.98F FOG
6HR MIN TEMP:  73; 6HR MAX TEMP:  78;

BOGALUSA*      NOT AVBL
GALLIANO*      FAIR      70  70 100 CALM      29.98F FOG
6HR MIN TEMP:  70; 6HR MAX TEMP:  78;

NEW ROADS*     FAIR      75  72  91 CALM      29.99F
6HR MIN TEMP:  74; 6HR MAX TEMP:  80;

GONZALES*      FAIR      73  73 100 CALM      29.98F
6HR MIN TEMP:  73; 6HR MAX TEMP:  79;

HAMMOND*       FAIR      72  68  88 CALM      30.01F
HOUMA*         FAIR      74  74 100 CALM      29.98F FOG
6HR MIN TEMP:  73; 6HR MAX TEMP:  77;

PORT FOURCHON* CLEAR     82  75  78 SE6       29.98F

$$

LAZ041-044-053-054-030700-
SOUTHWEST LOUISIANA

CITY           SKY/WX    TMP DP  RH WIND       PRES   REMARKS
LAKE CHARLES   FAIR      74  73  97 E6        29.96F
6HR MIN TEMP:  74; 6HR MAX TEMP:  80;

LAFAYETTE      FAIR      75  73  93 CALM      29.97F
6HR MIN TEMP:  75; 6HR MAX TEMP:  80;

PATTERSON      FAIR      75  72  88 E5        29.99F
6HR MIN TEMP:  73; 6HR MAX TEMP:  79;

SALT POINT       N/A     76  74  93 CALM      29.95F
6HR MIN TEMP:  76; 6HR MAX TEMP:  79;

NEW IBERIA     FAIR      76  74  93 E5        29.98F
6HR MIN TEMP:  75; 6HR MAX TEMP:  80;

CHENAULT AIRPK FAIR      73  72  96 E3        29.97F
6HR MIN TEMP:  73; 6HR MAX TEMP:  79;


$$

LAZ027-028-030700-
CENTRAL LOUISIANA

CITY           SKY/WX    TMP DP  RH WIND       PRES   REMARKS
FORT POLK      FAIR      72  70  94 SE3       29.97F
6HR MIN TEMP:  71; 6HR MAX TEMP:  80;

ALEXANDRIA INT FAIR      71  70  96 CALM      29.97F
6HR MIN TEMP:  70; 6HR MAX TEMP:  83;

ALEXANDRIA     FOG       71  67  87 CALM      29.99F VSB 1
6HR MIN TEMP:  71; 6HR MAX TEMP:  84;


$$

LAZ001-002-030700-
NORTHWEST LOUISIANA

CITY           SKY/WX    TMP DP  RH WIND       PRES   REMARKS
SHREVEPORT     FAIR      75  67  76 S3        29.96F
6HR MIN TEMP:  75; 6HR MAX TEMP:  90;

BARKSDALE AFB  FAIR      73  68  84 E5        29.96F
6HR MIN TEMP:  73; 6HR MAX TEMP:  84;

DTN SHREVEPORT FAIR      76  67  73 SE5       29.97S
6HR MIN TEMP:  74; 6HR MAX TEMP:  87;


$$

LAZ014-016-030700-
NORTHEAST LOUISIANA

CITY           SKY/WX    TMP DP  RH WIND       PRES   REMARKS
MONROE         FAIR      75  69  81 CALM      29.99S
6HR MIN TEMP:  74; 6HR MAX TEMP:  87;

TALLULAH       FAIR      72  70  93 CALM      30.00R FOG
6HR MIN TEMP:  71; 6HR MAX TEMP:  87;


$$




USA.gov is the U.S. government's official web portal to all federal, state and local government web resources and services.